Starlink 30088

operational
NORAD ID: 57462 Int'l Des: 2023-107 Owner: SPXS Country: US Constellation: starlink
LEOCIRCULAR

About Starlink 30088

Description loading...

Live Position

Loading 3D Globe...

Upcoming Passes

Altitude History

Altitude vs Time

uPlot chart will show altitude changes over time

Two-Line Element Set

1 57462U 23107F 25259.26059045 .00000593 00000-0 58928-4 0 9994
2 57462 43.0019 206.8578 0000975 263.2680 96.8051 15.02536695118873
Epoch: Sep 16, 2025 • Age: 17 hours

Current Status

Altitude 565.6 km
Velocity 7.58 km/s
Sub-Earth Point -27.17°S, 72.19°E
Launch Date Jul 28, 2023
Age 2.1 years
Type internet

Technical Details

Classification Payload
Mass 730.00 kg
Dry Mass 700.00 kg
Total Mass 730.00 kg
Length 0.30 m
Diameter 4.10 m
Span 29.00 m
Shape Box + pan
Manufacturer SPXS
Bus Type Starlink V2M
Phase Status In Orbit
Owner/State SPXS/US

Large Constellations

Loading constellations...